MAS607 WMKK-WSSS

Flight info

Callsign MAS607
Flight time 0h 42m
Altitude 23000
Route RUSBU1D RUSBU Y511 TOPOR A464 ARAMA ARAMA1A
Aircraft B738/M-SDE2E3FGHIRWXY/LB1

Departure

Time 2026-05-05 08:04
Airport Kuala Lumpur International Airport (WMKK)

Arrival

Time 2026-05-05 08:47
Airport Singapore Changi Airport (WSSS)
Time Latitude Longitude Altitude Speed Heading
2026-05-05 07:30 2.75526 101.70823 72 ft 0 kts 146°
2026-05-05 07:53 2.75530 101.70821 72 ft 3 kts 146°
2026-05-05 07:53 2.75548 101.70807 64 ft 4 kts 128°
2026-05-05 07:53 2.75554 101.70787 64 ft 4 kts 66°
2026-05-05 07:54 2.75544 101.70770 64 ft 1 kts 56°
2026-05-05 07:54 2.75543 101.70768 64 ft 0 kts 56°
2026-05-05 07:57 2.75552 101.70781 65 ft 4 kts 56°
2026-05-05 07:57 2.75575 101.70816 64 ft 7 kts 56°
2026-05-05 07:57 2.75601 101.70856 68 ft 7 kts 56°
2026-05-05 07:58 2.75627 101.70895 69 ft 7 kts 56°
2026-05-05 07:58 2.75652 101.70933 72 ft 7 kts 56°
2026-05-05 07:58 2.75679 101.70973 67 ft 8 kts 56°
2026-05-05 07:58 2.75714 101.71029 72 ft 11 kts 67°
2026-05-05 07:59 2.75673 101.71091 66 ft 13 kts 147°
2026-05-05 07:59 2.75590 101.71146 72 ft 15 kts 147°
2026-05-05 07:59 2.75504 101.71203 72 ft 15 kts 145°
2026-05-05 07:59 2.75422 101.71259 70 ft 14 kts 146°
2026-05-05 08:00 2.75343 101.71312 65 ft 13 kts 146°
2026-05-05 08:00 2.75339 101.71390 70 ft 13 kts 45°
2026-05-05 08:00 2.75391 101.71462 68 ft 13 kts 56°
2026-05-05 08:00 2.75438 101.71536 63 ft 12 kts 61°
2026-05-05 08:01 2.75396 101.71602 66 ft 12 kts 146°
2026-05-05 08:01 2.75333 101.71644 66 ft 9 kts 146°
2026-05-05 08:01 2.75279 101.71680 66 ft 9 kts 146°
2026-05-05 08:01 2.75227 101.71715 65 ft 9 kts 146°
2026-05-05 08:02 2.75177 101.71750 72 ft 9 kts 146°
2026-05-05 08:02 2.75127 101.71782 70 ft 9 kts 147°
2026-05-05 08:02 2.75071 101.71819 70 ft 11 kts 147°
2026-05-05 08:02 2.75005 101.71867 75 ft 12 kts 131°
2026-05-05 08:03 2.75017 101.71946 68 ft 14 kts 56°
2026-05-05 08:03 2.75073 101.72022 71 ft 11 kts 32°
2026-05-05 08:03 2.75138 101.72004 74 ft 9 kts 325°
2026-05-05 08:03 2.75234 101.71940 68 ft 31 kts 326°
2026-05-05 08:04 2.75498 101.71766 73 ft 59 kts 326°
2026-05-05 08:04 2.76004 101.71426 65 ft 122 kts 326°
2026-05-05 08:04 2.76880 101.70841 83 ft 178 kts 326°
2026-05-05 08:04 2.77945 101.70110 675 ft 186 kts 324°
2026-05-05 08:05 2.79007 101.69375 1485 ft 190 kts 324°
2026-05-05 08:05 2.80102 101.68653 2221 ft 199 kts 325°
2026-05-05 08:05 2.81343 101.67837 2473 ft 227 kts 326°
2026-05-05 08:05 2.82738 101.66918 2675 ft 253 kts 327°
2026-05-05 08:06 2.84156 101.65783 3154 ft 269 kts 309°
2026-05-05 08:06 2.84897 101.64076 4004 ft 273 kts 277°
2026-05-05 08:06 2.84639 101.62194 4794 ft 281 kts 249°
2026-05-05 08:06 2.83684 101.60479 5601 ft 283 kts 238°
2026-05-05 08:07 2.82592 101.58812 6361 ft 289 kts 233°
2026-05-05 08:07 2.81054 101.57570 7158 ft 289 kts 201°
2026-05-05 08:07 2.79079 101.57285 7966 ft 289 kts 174°
2026-05-05 08:07 2.77116 101.57734 8707 ft 291 kts 162°
2026-05-05 08:08 2.75179 101.58377 9476 ft 295 kts 160°
2026-05-05 08:08 2.73232 101.59058 10188 ft 298 kts 160°
2026-05-05 08:08 2.71215 101.59765 10477 ft 319 kts 160°
2026-05-05 08:08 2.69048 101.60517 10701 ft 339 kts 160°
2026-05-05 08:09 2.66794 101.61290 11213 ft 346 kts 160°
2026-05-05 08:09 2.64505 101.62069 11921 ft 348 kts 160°
2026-05-05 08:09 2.62211 101.62844 12659 ft 349 kts 160°
2026-05-05 08:09 2.59895 101.63623 13331 ft 353 kts 160°
2026-05-05 08:10 2.57552 101.64411 13962 ft 357 kts 160°
2026-05-05 08:10 2.55188 101.65204 14563 ft 360 kts 160°
2026-05-05 08:10 2.52799 101.66006 15175 ft 364 kts 160°
2026-05-05 08:10 2.50386 101.66815 15797 ft 368 kts 160°
2026-05-05 08:11 2.47981 101.67622 16399 ft 371 kts 160°
2026-05-05 08:11 2.45536 101.68483 16995 ft 374 kts 154°
2026-05-05 08:11 2.43352 101.69941 17551 ft 375 kts 134°
2026-05-05 08:11 2.41822 101.71998 18156 ft 375 kts 117°
2026-05-05 08:12 2.40652 101.74333 18673 ft 377 kts 115°
2026-05-05 08:12 2.39499 101.76700 19139 ft 381 kts 115°
2026-05-05 08:12 2.38335 101.79094 19621 ft 385 kts 115°
2026-05-05 08:12 2.37153 101.81508 20113 ft 387 kts 115°
2026-05-05 08:13 2.35956 101.83935 20604 ft 391 kts 115°
2026-05-05 08:13 2.34744 101.86378 21069 ft 394 kts 116°
2026-05-05 08:13 2.33519 101.88836 21533 ft 397 kts 116°
2026-05-05 08:13 2.32281 101.91314 22006 ft 399 kts 116°
2026-05-05 08:14 2.31039 101.93798 22548 ft 400 kts 116°
2026-05-05 08:14 2.29793 101.96288 22795 ft 403 kts 116°
2026-05-05 08:14 2.28531 101.98809 22806 ft 407 kts 116°
2026-05-05 08:14 2.27257 102.01354 22815 ft 411 kts 116°
2026-05-05 08:15 2.25982 102.03901 22809 ft 409 kts 116°
2026-05-05 08:15 2.24710 102.06440 22809 ft 408 kts 116°
2026-05-05 08:15 2.23441 102.08975 22810 ft 407 kts 116°
2026-05-05 08:15 2.22176 102.11503 22815 ft 407 kts 116°
2026-05-05 08:16 2.20908 102.14035 22812 ft 407 kts 116°
2026-05-05 08:16 2.19642 102.16564 22815 ft 407 kts 116°
2026-05-05 08:16 2.18373 102.19100 22815 ft 407 kts 116°
2026-05-05 08:16 2.17106 102.21631 22815 ft 408 kts 116°
2026-05-05 08:17 2.15837 102.24165 22813 ft 408 kts 116°
2026-05-05 08:17 2.14564 102.26707 22815 ft 408 kts 116°
2026-05-05 08:17 2.13294 102.29245 22814 ft 409 kts 116°
2026-05-05 08:17 2.12450 102.30930 22815 ft 409 kts 116°
2026-05-05 08:18 2.11177 102.33472 22822 ft 409 kts 116°
2026-05-05 08:18 2.09904 102.36014 22818 ft 409 kts 116°
2026-05-05 08:18 2.08630 102.38559 22814 ft 409 kts 116°
2026-05-05 08:18 2.06945 102.41922 22816 ft 409 kts 116°
2026-05-05 08:19 2.06085 102.43640 22814 ft 409 kts 116°
2026-05-05 08:19 2.04401 102.47003 22815 ft 408 kts 116°
2026-05-05 08:19 2.03542 102.48717 22813 ft 408 kts 116°
2026-05-05 08:19 2.02235 102.51229 22809 ft 408 kts 120°
2026-05-05 08:20 2.00624 102.53574 22822 ft 408 kts 126°
2026-05-05 08:20 1.98351 102.56568 22815 ft 409 kts 126°
2026-05-05 08:20 1.97182 102.58089 22811 ft 409 kts 126°
2026-05-05 08:20 1.95453 102.60343 22811 ft 409 kts 126°
2026-05-05 08:21 1.93730 102.62604 22812 ft 409 kts 126°
2026-05-05 08:21 1.92015 102.64867 22813 ft 409 kts 126°
2026-05-05 08:21 1.90305 102.67133 22811 ft 409 kts 126°
2026-05-05 08:21 1.88593 102.69407 22807 ft 409 kts 126°
2026-05-05 08:22 1.86886 102.71675 22813 ft 409 kts 126°
2026-05-05 08:22 1.85177 102.73946 22812 ft 409 kts 126°
2026-05-05 08:22 1.83469 102.76217 22810 ft 409 kts 126°
2026-05-05 08:22 1.81760 102.78488 22811 ft 408 kts 126°
2026-05-05 08:23 1.80054 102.80755 22810 ft 408 kts 126°
2026-05-05 08:23 1.78347 102.83024 22805 ft 407 kts 126°
2026-05-05 08:23 1.76668 102.85254 22794 ft 395 kts 126°
2026-05-05 08:23 1.75034 102.87424 22793 ft 388 kts 126°
2026-05-05 08:24 1.73465 102.89597 22802 ft 386 kts 121°
2026-05-05 08:24 1.72132 102.91929 22809 ft 387 kts 117°
2026-05-05 08:24 1.70888 102.94285 22350 ft 390 kts 116°
2026-05-05 08:24 1.69638 102.96691 21815 ft 389 kts 116°
2026-05-05 08:25 1.68389 102.99080 21342 ft 386 kts 117°
2026-05-05 08:25 1.67143 103.01442 20879 ft 383 kts 117°
2026-05-05 08:25 1.65898 103.03779 20421 ft 380 kts 117°
2026-05-05 08:25 1.64668 103.06079 20158 ft 371 kts 117°
2026-05-05 08:26 1.63451 103.08352 19982 ft 362 kts 117°
2026-05-05 08:26 1.62276 103.10538 19821 ft 352 kts 119°
2026-05-05 08:26 1.60807 103.12449 19576 ft 347 kts 137°
2026-05-05 08:26 1.58870 103.13880 19255 ft 345 kts 144°
2026-05-05 08:27 1.56875 103.15185 18992 ft 341 kts 146°
2026-05-05 08:27 1.54944 103.16423 18661 ft 339 kts 146°
2026-05-05 08:27 1.52908 103.17730 18304 ft 338 kts 146°
2026-05-05 08:27 1.50935 103.19006 17904 ft 337 kts 146°
2026-05-05 08:28 1.48975 103.20283 17523 ft 336 kts 145°
2026-05-05 08:28 1.47029 103.21557 17156 ft 334 kts 145°
2026-05-05 08:28 1.45093 103.22829 16788 ft 332 kts 145°
2026-05-05 08:28 1.43173 103.24094 16428 ft 330 kts 145°
2026-05-05 08:29 1.41231 103.25300 16069 ft 329 kts 153°
2026-05-05 08:29 1.39049 103.25973 15729 ft 328 kts 167°
2026-05-05 08:29 1.36804 103.26368 15394 ft 327 kts 169°
2026-05-05 08:30 1.32336 103.27058 14738 ft 323 kts 170°
2026-05-05 08:30 1.30154 103.27388 14427 ft 321 kts 170°
2026-05-05 08:30 1.27919 103.27726 14120 ft 319 kts 170°
2026-05-05 08:30 1.25738 103.28054 13843 ft 316 kts 170°
2026-05-05 08:31 1.23574 103.28379 13557 ft 313 kts 170°
2026-05-05 08:31 1.21430 103.28701 13251 ft 310 kts 170°
2026-05-05 08:31 1.19342 103.29017 13017 ft 306 kts 170°
2026-05-05 08:31 1.17255 103.29336 12774 ft 301 kts 170°
2026-05-05 08:32 1.15202 103.29651 12551 ft 296 kts 170°
2026-05-05 08:32 1.13179 103.29964 12351 ft 291 kts 170°
2026-05-05 08:32 1.11199 103.30272 12175 ft 287 kts 170°
2026-05-05 08:32 1.09231 103.30581 12021 ft 286 kts 170°
2026-05-05 08:33 1.07259 103.30893 11884 ft 288 kts 170°
2026-05-05 08:33 1.05243 103.31214 11787 ft 300 kts 170°
2026-05-05 08:33 1.03156 103.31548 11685 ft 304 kts 170°
2026-05-05 08:33 1.01085 103.31890 11507 ft 301 kts 166°
2026-05-05 08:34 0.99240 103.32815 11237 ft 300 kts 135°
2026-05-05 08:34 0.98149 103.34557 11016 ft 299 kts 105°
2026-05-05 08:34 0.98119 103.36609 10785 ft 299 kts 74°
2026-05-05 08:34 0.98954 103.38512 10590 ft 298 kts 69°
2026-05-05 08:35 0.99509 103.40492 10379 ft 294 kts 78°
2026-05-05 08:35 0.99881 103.42493 10163 ft 290 kts 80°
2026-05-05 08:35 1.00217 103.44448 10043 ft 282 kts 80°
2026-05-05 08:35 1.00558 103.46363 9792 ft 280 kts 80°
2026-05-05 08:36 1.00913 103.48269 9497 ft 279 kts 79°
2026-05-05 08:36 1.01281 103.50171 9186 ft 278 kts 79°
2026-05-05 08:36 1.01659 103.52070 8883 ft 278 kts 78°
2026-05-05 08:36 1.02040 103.53960 8582 ft 277 kts 78°
2026-05-05 08:37 1.02426 103.55844 8284 ft 277 kts 78°
2026-05-05 08:37 1.02812 103.57722 7986 ft 276 kts 78°
2026-05-05 08:37 1.03201 103.59604 7684 ft 276 kts 78°
2026-05-05 08:37 1.03590 103.61478 7387 ft 276 kts 78°
2026-05-05 08:38 1.03980 103.63355 7071 ft 276 kts 78°
2026-05-05 08:38 1.04371 103.65235 6765 ft 276 kts 78°
2026-05-05 08:38 1.04763 103.67114 6458 ft 276 kts 78°
2026-05-05 08:38 1.05154 103.68995 6156 ft 277 kts 78°
2026-05-05 08:39 1.05546 103.70878 5824 ft 277 kts 78°
2026-05-05 08:39 1.05938 103.72757 5521 ft 276 kts 78°
2026-05-05 08:39 1.06328 103.74633 5226 ft 275 kts 78°
2026-05-05 08:39 1.06717 103.76499 5015 ft 271 kts 78°
2026-05-05 08:40 1.07094 103.78309 4886 ft 263 kts 78°
2026-05-05 08:40 1.07462 103.80074 4768 ft 256 kts 78°
2026-05-05 08:40 1.07819 103.81789 4661 ft 248 kts 78°
2026-05-05 08:40 1.08166 103.83455 4549 ft 241 kts 78°
2026-05-05 08:41 1.08506 103.85069 4412 ft 235 kts 76°
2026-05-05 08:41 1.09280 103.86469 4182 ft 232 kts 39°
2026-05-05 08:41 1.10626 103.87336 4029 ft 230 kts 29°
2026-05-05 08:41 1.12055 103.88081 3780 ft 234 kts 25°
2026-05-05 08:42 1.13546 103.88742 3602 ft 234 kts 22°
2026-05-05 08:42 1.15038 103.89369 3448 ft 231 kts 22°
2026-05-05 08:42 1.16506 103.89984 3289 ft 226 kts 22°
2026-05-05 08:42 1.17930 103.90584 3116 ft 218 kts 22°
2026-05-05 08:43 1.19297 103.91161 2940 ft 209 kts 22°
2026-05-05 08:43 1.20600 103.91711 2780 ft 198 kts 22°
2026-05-05 08:43 1.21838 103.92234 2673 ft 187 kts 22°
2026-05-05 08:43 1.23013 103.92730 2479 ft 181 kts 22°
2026-05-05 08:44 1.24150 103.93210 2253 ft 175 kts 22°
2026-05-05 08:44 1.25277 103.93686 2033 ft 177 kts 22°
2026-05-05 08:44 1.26421 103.94169 1805 ft 179 kts 23°
2026-05-05 08:44 1.27564 103.94652 1580 ft 175 kts 22°
2026-05-05 08:45 1.28639 103.95106 1349 ft 161 kts 23°
2026-05-05 08:45 1.29643 103.95530 1129 ft 152 kts 23°
2026-05-05 08:45 1.30602 103.95935 948 ft 150 kts 23°
2026-05-05 08:45 1.31541 103.96331 767 ft 144 kts 24°
2026-05-05 08:46 1.32456 103.96719 608 ft 142 kts 25°
2026-05-05 08:46 1.33367 103.97100 419 ft 142 kts 24°
2026-05-05 08:46 1.34284 103.97484 236 ft 142 kts 25°
2026-05-05 08:46 1.35180 103.97866 37 ft 133 kts 26°
2026-05-05 08:47 1.35943 103.98193 26 ft 105 kts 22°
2026-05-05 08:47 1.36489 103.98424 23 ft 50 kts 23°
2026-05-05 08:47 1.36724 103.98607 24 ft 19 kts 52°
2026-05-05 08:47 1.36725 103.98681 26 ft 11 kts 114°
2026-05-05 08:48 1.36722 103.98687 25 ft 11 kts 114°
2026-05-05 08:48 1.36716 103.98699 24 ft 6 kts 120°
2026-05-05 08:48 1.36694 103.98706 23 ft 5 kts 198°
2026-05-05 08:48 1.36660 103.98690 26 ft 5 kts 206°
2026-05-05 08:49 1.36628 103.98675 23 ft 5 kts 202°
2026-05-05 08:49 1.36594 103.98661 23 ft 5 kts 202°
2026-05-05 08:49 1.36561 103.98647 24 ft 6 kts 203°
2026-05-05 08:49 1.36522 103.98630 23 ft 7 kts 203°
2026-05-05 08:50 1.36477 103.98612 23 ft 8 kts 203°
2026-05-05 08:50 1.36424 103.98589 25 ft 9 kts 203°
2026-05-05 08:50 1.36363 103.98563 23 ft 10 kts 203°
2026-05-05 08:50 1.36292 103.98533 23 ft 12 kts 203°
2026-05-05 08:51 1.36216 103.98501 23 ft 13 kts 202°
2026-05-05 08:51 1.36128 103.98465 25 ft 14 kts 202°
2026-05-05 08:51 1.36037 103.98426 25 ft 15 kts 203°
2026-05-05 08:51 1.35940 103.98385 25 ft 16 kts 202°
2026-05-05 08:52 1.35840 103.98343 23 ft 16 kts 203°
2026-05-05 08:52 1.35731 103.98297 23 ft 18 kts 203°
2026-05-05 08:52 1.35610 103.98245 23 ft 20 kts 203°
2026-05-05 08:52 1.35476 103.98189 24 ft 22 kts 202°
2026-05-05 08:53 1.35332 103.98129 25 ft 23 kts 202°
2026-05-05 08:53 1.35178 103.98065 25 ft 25 kts 202°
2026-05-05 08:53 1.35019 103.97998 26 ft 20 kts 202°
2026-05-05 08:53 1.34905 103.97949 26 ft 16 kts 205°
2026-05-05 08:54 1.34818 103.97983 25 ft 15 kts 118°
2026-05-05 08:54 1.34777 103.98079 27 ft 15 kts 113°
2026-05-05 08:54 1.34738 103.98171 24 ft 14 kts 113°
2026-05-05 08:54 1.34701 103.98259 25 ft 13 kts 113°
2026-05-05 08:55 1.34666 103.98342 23 ft 13 kts 112°
2026-05-05 08:55 1.34632 103.98424 26 ft 13 kts 112°
2026-05-05 08:55 1.34598 103.98504 23 ft 12 kts 113°
2026-05-05 08:55 1.34565 103.98582 24 ft 12 kts 112°
2026-05-05 08:56 1.34534 103.98660 26 ft 12 kts 102°
2026-05-05 08:56 1.34584 103.98716 23 ft 12 kts 23°
2026-05-05 08:56 1.34657 103.98746 23 ft 11 kts 22°
2026-05-05 08:56 1.34728 103.98777 23 ft 11 kts 24°
2026-05-05 08:57 1.34796 103.98808 24 ft 11 kts 22°
2026-05-05 08:57 1.34863 103.98835 24 ft 10 kts 22°
2026-05-05 08:57 1.34925 103.98868 23 ft 10 kts 52°
2026-05-05 08:57 1.34921 103.98932 24 ft 10 kts 112°
2026-05-05 08:58 1.34940 103.98981 24 ft 9 kts 11°
2026-05-05 08:58 1.35002 103.98976 26 ft 9 kts 353°
2026-05-05 08:58 1.35063 103.98969 23 ft 8 kts 354°
2026-05-05 08:58 1.35092 103.99009 23 ft 8 kts 84°
2026-05-05 08:59 1.35091 103.99038 23 ft 1 kts 86°
2026-05-05 08:59 1.35092 103.99047 23 ft 1 kts 85°